| time (UTC) | temp F | wind direction | speed MPH | gust MPH | rain 1hr in | rain 24hr in | rain mn in | humidity % | barometer mb |
| 20260901131538 | 91 | 86 | 2.0 | 7.0 | 0.00 | 0.00 | 0.00 | 49 | 1014.8 |
| 20260901131038 | 91 | 128 | 4.0 | 8.0 | 0.00 | 0.00 | 0.00 | 48 | 1014.8 |
| 20260901130538 | 91 | 20 | 3.0 | 8.0 | 0.00 | 0.00 | 0.00 | 47 | 1014.9 |
| 20260901130038 | 91 | 220 | 2.0 | 8.0 | 0.00 | 0.00 | 0.00 | 47 | 1014.8 |
| 20260901125539 | 91 | 209 | 4.0 | 10.0 | 0.00 | 0.00 | 0.00 | 47 | 1014.8 |
| 20260901125041 | 91 | 271 | 3.0 | 6.0 | 0.00 | 0.00 | 0.00 | 47 | 1014.9 |
| 20260901124541 | 91 | 126 | 1.0 | 7.0 | 0.00 | 0.00 | 0.00 | 48 | 1014.8 |
| 20260901124038 | 91 | 224 | 4.0 | 9.0 | 0.00 | 0.00 | 0.00 | 48 | 1014.8 |
| 20260901123538 | 91 | 231 | 2.0 | 9.0 | 0.00 | 0.00 | 0.00 | 48 | 1014.9 |
| 20260901123038 | 90 | 174 | 2.0 | 12.0 | 0.00 | 0.00 | 0.00 | 48 | 1014.9 |
| 20260901122541 | 91 | 259 | 7.0 | 8.0 | 0.00 | 0.00 | 0.00 | 47 | 1014.9 |
| 20260901122041 | 91 | 88 | 3.0 | 6.0 | 0.00 | 0.00 | 0.00 | 49 | 1014.9 |
| 20260901121538 | 90 | 309 | 2.0 | 10.0 | 0.00 | 0.00 | 0.00 | 49 | 1014.9 |
| 20260901121041 | 90 | 59 | 1.0 | 6.0 | 0.00 | 0.00 | 0.00 | 49 | 1014.9 |
| 20260901120538 | 91 | 277 | 4.0 | 10.0 | 0.00 | 0.00 | 0.00 | 47 | 1014.9 |
| 20260901120038 | 91 | 298 | 2.0 | 8.0 | 0.00 | 0.00 | 0.00 | 48 | 1014.9 |
| 20260901115538 | 91 | 30 | 4.0 | 9.0 | 0.00 | 0.00 | 0.00 | 47 | 1014.9 |
| 20260901115038 | 91 | 33 | 2.0 | 9.0 | 0.00 | 0.00 | 0.00 | 47 | 1014.9 |
| 20260901114538 | 91 | 289 | 2.0 | 8.0 | 0.00 | 0.00 | 0.00 | 46 | 1014.8 |
| 20260901114038 | 91 | 338 | 8.0 | 12.0 | 0.00 | 0.00 | 0.00 | 45 | 1014.9 |
| 20260901113538 | 91 | 32 | 2.0 | 8.0 | 0.00 | 0.00 | 0.00 | 46 | 1014.8 |
| 20260901113041 | 92 | 344 | 1.0 | 7.0 | 0.00 | 0.00 | 0.00 | 45 | 1014.8 |
| 20260901112538 | 92 | 83 | 3.0 | 5.0 | 0.00 | 0.00 | 0.00 | 45 | 1014.8 |
| 20260901112038 | 92 | 349 | 2.0 | 7.0 | 0.00 | 0.00 | 0.00 | 45 | 1014.9 |
| 20260901111538 | 92 | 330 | 5.0 | 7.0 | 0.00 | 0.00 | 0.00 | 45 | 1014.9 |
| 20260901111041 | 92 | 54 | 1.0 | 5.0 | 0.00 | 0.00 | 0.00 | 47 | 1014.8 |
| 20260901110538 | 92 | 133 | 4.0 | 7.0 | 0.00 | 0.00 | 0.00 | 47 | 1014.8 |
| 20260901110038 | 93 | 228 | 2.0 | 5.0 | 0.00 | 0.00 | 0.00 | 46 | 1014.7 |
| 20260901105538 | 93 | 38 | 1.0 | 8.0 | 0.00 | 0.00 | 0.00 | 44 | 1014.8 |
| 20260901105038 | 94 | 164 | 1.0 | 8.0 | 0.00 | 0.00 | 0.00 | 42 | 1014.9 |
| 20260901104538 | 94 | 202 | 1.0 | 3.0 | 0.00 | 0.00 | 0.00 | 35 | 1014.9 |
| 20260901104038 | 94 | 286 | 1.0 | 7.0 | 0.00 | 0.00 | 0.00 | 31 | 1014.8 |
| 20260901103538 | 93 | 264 | 2.0 | 9.0 | 0.00 | 0.00 | 0.00 | 32 | 1014.8 |
| 20260901103038 | 93 | 342 | 2.0 | 10.0 | 0.00 | 0.00 | 0.00 | 32 | 1014.9 |
| 20260901102538 | 92 | 303 | 3.0 | 10.0 | 0.00 | 0.00 | 0.00 | 31 | 1014.8 |
| 20260901102038 | 92 | 315 | 5.0 | 8.0 | 0.00 | 0.00 | 0.00 | 33 | 1014.9 |
| 20260901101538 | 92 | 321 | 0.0 | 10.0 | 0.00 | 0.00 | 0.00 | 32 | 1014.9 |
| 20260901101038 | 92 | 327 | 3.0 | 10.0 | 0.00 | 0.00 | 0.00 | 33 | 1014.8 |
| 20260901100538 | 92 | 42 | 6.0 | 11.0 | 0.00 | 0.00 | 0.00 | 34 | 1015.0 |
| 20260901100038 | 91 | 341 | 3.0 | 10.0 | 0.00 | 0.00 | 0.00 | 33 | 1015.0 |
| 20260901095538 | 91 | 310 | 8.0 | 10.0 | 0.00 | 0.00 | 0.00 | 32 | 1014.9 |
| 20260901095041 | 91 | 342 | 9.0 | 12.0 | 0.00 | 0.00 | 0.00 | 33 | 1015.0 |
| 20260901094538 | 91 | 298 | 4.0 | 12.0 | 0.00 | 0.00 | 0.00 | 35 | 1015.0 |
| 20260901094038 | 91 | 320 | 10.0 | 12.0 | 0.00 | 0.00 | 0.00 | 34 | 1015.0 |
| 20260901093539 | 91 | 5 | 3.0 | 11.0 | 0.00 | 0.00 | 0.00 | 34 | 1015.0 |
| 20260901093041 | 91 | 306 | 3.0 | 10.0 | 0.00 | 0.00 | 0.00 | 35 | 1015.0 |
| 20260901092538 | 91 | 267 | 3.0 | 10.0 | 0.00 | 0.00 | 0.00 | 35 | 1015.1 |
| 20260901092038 | 90 | 333 | 8.0 | 11.0 | 0.00 | 0.00 | 0.00 | 35 | 1015.1 |
| 20260901091541 | 90 | 303 | 4.0 | 9.0 | 0.00 | 0.00 | 0.00 | 37 | 1015.0 |
| 20260901091038 | 90 | 11 | 4.0 | 13.0 | 0.00 | 0.00 | 0.00 | 37 | 1015.0 |
| 20260901090541 | 89 | 317 | 4.0 | 11.0 | 0.00 | 0.00 | 0.00 | 38 | 1014.9 |
| 20260901090038 | 89 | 330 | 8.0 | 10.0 | 0.00 | 0.00 | 0.00 | 38 | 1014.9 |
| 20260901085541 | 89 | 315 | 9.0 | 13.0 | 0.00 | 0.00 | 0.00 | 38 | 1014.8 |
| 20260901085038 | 89 | 319 | 4.0 | 9.0 | 0.00 | 0.00 | 0.00 | 39 | 1014.9 |
| 20260901084538 | 89 | 13 | 8.0 | 12.0 | 0.00 | 0.00 | 0.00 | 38 | 1015.0 |
| 20260901084038 | 89 | 290 | 1.0 | 8.0 | 0.00 | 0.00 | 0.00 | 40 | 1015.0 |
| 20260901083538 | 88 | 5 | 3.0 | 9.0 | 0.00 | 0.00 | 0.00 | 40 | 1015.1 |
| 20260901083038 | 88 | 336 | 5.0 | 9.0 | 0.00 | 0.00 | 0.00 | 41 | 1015.0 |
| 20260901082538 | 88 | 344 | 6.0 | 10.0 | 0.00 | 0.00 | 0.00 | 41 | 1015.0 |
| 20260901082038 | 88 | 49 | 4.0 | 9.0 | 0.00 | 0.00 | 0.00 | 41 | 1014.9 |
| 20260901081538 | 88 | 335 | 2.0 | 11.0 | 0.00 | 0.00 | 0.00 | 42 | 1014.9 |
| 20260901081041 | 88 | 333 | 8.0 | 8.0 | 0.00 | 0.00 | 0.00 | 43 | 1014.8 |
| 20260901080538 | 87 | 331 | 2.0 | 8.0 | 0.00 | 0.00 | 0.00 | 45 | 1014.7 |
| 20260901080038 | 87 | 310 | 7.0 | 9.0 | 0.00 | 0.00 | 0.00 | 46 | 1014.7 |
| 20260901075538 | 86 | 343 | 5.0 | 9.0 | 0.00 | 0.00 | 0.00 | 47 | 1014.7 |
| 20260901075041 | 86 | 304 | 3.0 | 5.0 | 0.00 | 0.00 | 0.00 | 49 | 1014.7 |
| 20260901074538 | 85 | 302 | 2.0 | 8.0 | 0.00 | 0.00 | 0.00 | 49 | 1014.7 |
| 20260901074041 | 85 | 248 | 1.0 | 6.0 | 0.00 | 0.00 | 0.00 | 52 | 1014.6 |
| 20260901073541 | 85 | 319 | 1.0 | 5.0 | 0.00 | 0.00 | 0.00 | 52 | 1014.5 |
| 20260901073038 | 84 | 348 | 1.0 | 9.0 | 0.00 | 0.00 | 0.00 | 52 | 1014.5 |
| 20260901072538 | 84 | 306 | 3.0 | 3.0 | 0.00 | 0.00 | 0.00 | 54 | 1014.4 |
| 20260901072041 | 83 | 339 | 1.0 | 5.0 | 0.00 | 0.00 | 0.00 | 56 | 1014.5 |
| 20260901071538 | 83 | 344 | 1.0 | 3.0 | 0.00 | 0.00 | 0.00 | 56 | 1014.5 |
| 20260901071038 | 82 | 321 | 0.0 | 4.0 | 0.00 | 0.00 | 0.00 | 59 | 1014.5 |
| 20260901070538 | 82 | 347 | 2.0 | 3.0 | 0.00 | 0.00 | 0.00 | 60 | 1014.4 |
| 20260901070041 | 81 | 286 | 1.0 | 5.0 | 0.00 | 0.00 | 0.00 | 61 | 1014.4 |
| 20260901065538 | 80 | 322 | 1.0 | 4.0 | 0.00 | 0.00 | 0.00 | 63 | 1014.4 |
| 20260901065041 | 80 | 311 | 3.0 | 5.0 | 0.00 | 0.00 | 0.00 | 65 | 1014.4 |
| 20260901064538 | 79 | 322 | 1.0 | 8.0 | 0.00 | 0.00 | 0.00 | 66 | 1014.3 |
| 20260901064038 | 79 | 302 | 7.0 | 7.0 | 0.00 | 0.00 | 0.00 | 66 | 1014.4 |
| 20260901063538 | 79 | 321 | 1.0 | 6.0 | 0.00 | 0.00 | 0.00 | 66 | 1014.4 |
| 20260901063041 | 78 | 331 | 0.0 | 2.0 | 0.00 | 0.00 | 0.00 | 69 | 1014.4 |
| 20260901062538 | 78 | 336 | 0.0 | 8.0 | 0.00 | 0.00 | 0.00 | 70 | 1014.3 |
| 20260901062038 | 77 | 337 | 1.0 | 5.0 | 0.00 | 0.00 | 0.00 | 70 | 1014.3 |
| 20260901061538 | 77 | 315 | 0.0 | 6.0 | 0.00 | 0.00 | 0.00 | 72 | 1014.4 |
| 20260901061038 | 76 | 323 | 2.0 | 6.0 | 0.00 | 0.00 | 0.00 | 73 | 1014.4 |
| 20260901060538 | 76 | 312 | 3.0 | 9.0 | 0.00 | 0.00 | 0.00 | 73 | 1014.4 |
| 20260901060038 | 76 | 314 | 3.0 | 7.0 | 0.00 | 0.00 | 0.00 | 74 | 1014.5 |
| 20260901055538 | 76 | 297 | 2.0 | 8.0 | 0.00 | 0.00 | 0.00 | 74 | 1014.4 |
| 20260901055038 | 76 | 325 | 1.0 | 9.0 | 0.00 | 0.00 | 0.00 | 75 | 1014.4 |
| 20260901054541 | 76 | 304 | 3.0 | 9.0 | 0.00 | 0.00 | 0.00 | 75 | 1014.3 |
| 20260901054039 | 75 | 338 | 3.0 | 9.0 | 0.00 | 0.00 | 0.00 | 75 | 1014.3 |
| 20260901053538 | 75 | 323 | 4.0 | 8.0 | 0.00 | 0.00 | 0.00 | 76 | 1014.3 |
| 20260901053038 | 75 | 306 | 2.0 | 6.0 | 0.00 | 0.00 | 0.00 | 76 | 1014.3 |
| 20260901052538 | 74 | 312 | 5.0 | 9.0 | 0.00 | 0.00 | 0.00 | 76 | 1014.3 |
| 20260901052038 | 74 | 342 | 6.0 | 10.0 | 0.00 | 0.00 | 0.00 | 76 | 1014.2 |
| 20260901051538 | 74 | 315 | 5.0 | 9.0 | 0.00 | 0.00 | 0.00 | 76 | 1014.2 |
| 20260901051038 | 74 | 331 | 5.0 | 9.0 | 0.00 | 0.00 | 0.00 | 76 | 1014.1 |
| 20260901050538 | 74 | 305 | 4.0 | 10.0 | 0.00 | 0.00 | 0.00 | 76 | 1014.1 |
| 20260901050038 | 74 | 324 | 5.0 | 11.0 | 0.00 | 0.00 | 0.00 | 75 | 1014.1 |
| 20260901045541 | 74 | 334 | 4.0 | 12.0 | 0.00 | 0.00 | 0.00 | 75 | 1014.0 |
| 20260901045038 | 74 | 342 | 5.0 | 10.0 | 0.00 | 0.00 | 0.00 | 76 | 1014.1 |
| 20260901044538 | 74 | 346 | 8.0 | 12.0 | 0.00 | 0.00 | 0.00 | 75 | 1014.0 |
| 20260901044038 | 74 | 323 | 5.0 | 11.0 | 0.00 | 0.00 | 0.00 | 75 | 1014.0 |
| 20260901043538 | 75 | 315 | 4.0 | 10.0 | 0.00 | 0.00 | 0.00 | 75 | 1014.1 |
| 20260901043041 | 75 | 327 | 9.0 | 10.0 | 0.00 | 0.00 | 0.00 | 74 | 1014.1 |
| 20260901042538 | 75 | 340 | 6.0 | 10.0 | 0.00 | 0.00 | 0.00 | 74 | 1014.0 |
| 20260901042038 | 75 | 317 | 10.0 | 11.0 | 0.00 | 0.00 | 0.00 | 74 | 1014.1 |
| 20260901041538 | 75 | 336 | 5.0 | 10.0 | 0.00 | 0.00 | 0.00 | 74 | 1014.2 |
| 20260901041038 | 75 | 340 | 8.0 | 10.0 | 0.00 | 0.00 | 0.00 | 74 | 1014.1 |
| 20260901040538 | 75 | 344 | 8.0 | 10.0 | 0.00 | 0.00 | 0.00 | 74 | 1014.2 |
| 20260901040038 | 76 | 342 | 2.0 | 8.0 | 0.00 | 0.00 | 0.00 | 74 | 1014.3 |
| 20260901035538 | 75 | 279 | 4.0 | 8.0 | 0.00 | 0.00 | 0.00 | 74 | 1014.2 |
| 20260901035038 | 75 | 329 | 3.0 | 8.0 | 0.00 | 0.00 | 0.00 | 74 | 1014.3 |
| 20260901034538 | 76 | 311 | 3.0 | 9.0 | 0.00 | 0.00 | 0.00 | 74 | 1014.3 |
| 20260901034038 | 76 | 17 | 4.0 | 9.0 | 0.00 | 0.00 | 0.00 | 73 | 1014.3 |
| 20260901033538 | 76 | 306 | 4.0 | 11.0 | 0.00 | 0.00 | 0.00 | 73 | 1014.4 |
| 20260901033041 | 76 | 336 | 5.0 | 11.0 | 0.00 | 0.00 | 0.00 | 73 | 1014.4 |
| 20260901032538 | 76 | 340 | 9.0 | 11.0 | 0.00 | 0.00 | 0.00 | 73 | 1014.4 |
| 20260901032038 | 76 | 328 | 1.0 | 8.0 | 0.00 | 0.00 | 0.00 | 73 | 1014.5 |
| 20260901031538 | 76 | 332 | 3.0 | 7.0 | 0.00 | 0.00 | 0.00 | 73 | 1014.5 |
| 20260901031038 | 76 | 319 | 3.0 | 5.0 | 0.00 | 0.00 | 0.00 | 73 | 1014.5 |
| 20260901030538 | 76 | 324 | 0.0 | 6.0 | 0.00 | 0.00 | 0.00 | 73 | 1014.5 |
| 20260901030041 | 76 | 320 | 4.0 | 5.0 | 0.00 | 0.00 | 0.00 | 73 | 1014.7 |
| 20260901025538 | 76 | 280 | 2.0 | 6.0 | 0.00 | 0.00 | 0.00 | 73 | 1014.6 |
| 20260901025038 | 76 | 317 | 1.0 | 4.0 | 0.00 | 0.00 | 0.00 | 73 | 1014.7 |
| 20260901024541 | 76 | 296 | 1.0 | 4.0 | 0.00 | 0.00 | 0.00 | 73 | 1014.7 |
| 20260901024041 | 76 | 323 | 0.0 | 4.0 | 0.00 | 0.00 | 0.00 | 72 | 1014.7 |
| 20260901023538 | 77 | 324 | 3.0 | 3.0 | 0.00 | 0.00 | 0.00 | 72 | 1014.7 |
| 20260901023038 | 77 | 300 | 0.0 | 5.0 | 0.00 | 0.00 | 0.00 | 72 | 1014.6 |
| 20260901022539 | 77 | 297 | 0.0 | 4.0 | 0.00 | 0.00 | 0.00 | 71 | 1014.7 |
| 20260901022038 | 77 | 310 | 1.0 | 4.0 | 0.00 | 0.00 | 0.00 | 71 | 1014.6 |
| 20260901021538 | 77 | 317 | 1.0 | 6.0 | 0.00 | 0.00 | 0.00 | 71 | 1014.7 |
| 20260901021039 | 77 | 325 | 3.0 | 4.0 | 0.00 | 0.00 | 0.00 | 71 | 1014.7 |
| 20260901020541 | 77 | 325 | 0.0 | 3.0 | 0.00 | 0.00 | 0.00 | 71 | 1014.7 |
| 20260901020038 | 77 | 308 | 0.0 | 1.0 | 0.00 | 0.00 | 0.00 | 72 | 1014.6 |
| 20260901015538 | 77 | 302 | 0.0 | 2.0 | 0.00 | 0.00 | 0.00 | 72 | 1014.7 |
| 20260901015038 | 77 | 311 | 0.0 | 3.0 | 0.00 | 0.00 | 0.00 | 72 | 1014.5 |
| 20260901014538 | 77 | 298 | 1.0 | 2.0 | 0.00 | 0.00 | 0.00 | 73 | 1014.5 |
| 20260901014038 | 77 | 300 | 0.0 | 3.0 | 0.00 | 0.00 | 0.00 | 73 | 1014.5 |
| 20260901013538 | 76 | 282 | 1.0 | 2.0 | 0.00 | 0.00 | 0.00 | 74 | 1014.5 |
| 20260901013038 | 76 | 252 | 0.0 | 2.0 | 0.00 | 0.00 | 0.00 | 74 | 1014.5 |
| 20260901012538 | 76 | 301 | 0.0 | 3.0 | 0.00 | 0.00 | 0.00 | 74 | 1014.6 |
| 20260901012038 | 76 | 309 | 0.0 | 5.0 | 0.00 | 0.00 | 0.00 | 75 | 1014.6 |
| 20260901011538 | 76 | 327 | 3.0 | 9.0 | 0.00 | 0.00 | 0.00 | 74 | 1014.7 |
| 20260901011038 | 77 | 324 | 1.0 | 8.0 | 0.00 | 0.00 | 0.00 | 74 | 1014.7 |
| 20260901010538 | 77 | 309 | 5.0 | 6.0 | 0.00 | 0.00 | 0.00 | 74 | 1014.6 |
| 20260901010038 | 77 | 313 | 3.0 | 8.0 | 0.00 | 0.00 | 0.00 | 74 | 1014.6 |
| 20260901005541 | 77 | 313 | 1.0 | 5.0 | 0.00 | 0.00 | 0.00 | 74 | 1014.6 |
| 20260901005038 | 77 | 295 | 2.0 | 5.0 | 0.00 | 0.00 | 0.00 | 74 | 1014.5 |
| 20260901004538 | 77 | 328 | 2.0 | 5.0 | 0.00 | 0.00 | 0.00 | 74 | 1014.4 |
| 20260901004038 | 77 | 327 | 1.0 | 5.0 | 0.00 | 0.00 | 0.00 | 74 | 1014.3 |
| 20260901003538 | 77 | 338 | 2.0 | 5.0 | 0.00 | 0.00 | 0.00 | 74 | 1014.4 |
| 20260901003038 | 77 | 319 | 3.0 | 10.0 | 0.00 | 0.00 | 0.00 | 74 | 1014.3 |
| 20260901002540 | 77 | 311 | 8.0 | 10.0 | 0.00 | 0.00 | 0.00 | 74 | 1014.2 |
| 20260901002041 | 77 | 319 | 5.0 | 13.0 | 0.00 | 0.00 | 0.00 | 74 | 1014.3 |
| 20260901001540 | 77 | 318 | 6.0 | 13.0 | 0.00 | 0.00 | 0.00 | 74 | 1014.3 |
| 20260901001038 | 77 | 0 | 3.0 | 11.0 | 0.00 | 0.00 | 0.00 | 74 | 1014.3 |
| 20260901000538 | 77 | 311 | 4.0 | 10.0 | 0.00 | 0.00 | 0.00 | 73 | 1014.3 |
| 20260901000038 | 77 | 309 | 3.0 | 9.0 | 0.00 | 0.00 | 0.00 | 73 | 1014.3 |
| 20260831235538 | 77 | 311 | 2.0 | 6.0 | 0.00 | 0.00 | 0.00 | 73 | 1014.3 |
| 20260831235038 | 77 | 317 | 2.0 | 8.0 | 0.00 | 0.00 | 0.00 | 73 | 1014.3 |
| 20260831234538 | 77 | 273 | 3.0 | 10.0 | 0.00 | 0.00 | 0.00 | 73 | 1014.3 |
| 20260831234038 | 77 | 330 | 4.0 | 8.0 | 0.00 | 0.00 | 0.00 | 73 | 1014.4 |
| 20260831233538 | 77 | 265 | 2.0 | 5.0 | 0.00 | 0.00 | 0.00 | 73 | 1014.3 |
| 20260831233041 | 77 | 335 | 4.0 | 4.0 | 0.00 | 0.00 | 0.00 | 73 | 1014.3 |
| 20260831232538 | 78 | 321 | 4.0 | 5.0 | 0.00 | 0.00 | 0.00 | 73 | 1014.3 |
| 20260831232038 | 78 | 326 | 2.0 | 9.0 | 0.00 | 0.00 | 0.00 | 73 | 1014.3 |
| 20260831231538 | 78 | 315 | 2.0 | 8.0 | 0.00 | 0.00 | 0.00 | 72 | 1014.4 |
| 20260831231038 | 78 | 317 | 5.0 | 7.0 | 0.00 | 0.00 | 0.00 | 72 | 1014.3 |
| 20260831230538 | 79 | 314 | 5.0 | 11.0 | 0.00 | 0.00 | 0.00 | 72 | 1014.3 |
| 20260831230038 | 79 | 316 | 3.0 | 11.0 | 0.00 | 0.00 | 0.00 | 72 | 1014.3 |
| 20260831225538 | 79 | 300 | 5.0 | 9.0 | 0.00 | 0.00 | 0.00 | 72 | 1014.2 |
| 20260831225038 | 79 | 257 | 1.0 | 5.0 | 0.00 | 0.00 | 0.00 | 72 | 1014.2 |
| 20260831224538 | 79 | 211 | 0.0 | 8.0 | 0.00 | 0.00 | 0.00 | 73 | 1014.2 |
| 20260831224038 | 79 | 238 | 1.0 | 9.0 | 0.00 | 0.00 | 0.00 | 74 | 1014.2 |
| 20260831223538 | 79 | 223 | 3.0 | 9.0 | 0.00 | 0.00 | 0.00 | 75 | 1014.2 |
| 20260831223038 | 79 | 254 | 3.0 | 6.0 | 0.00 | 0.00 | 0.00 | 75 | 1014.3 |
| 20260831222538 | 79 | 250 | 0.0 | 8.0 | 0.00 | 0.00 | 0.00 | 75 | 1014.2 |
| 20260831222038 | 79 | 18 | 1.0 | 7.0 | 0.00 | 0.00 | 0.00 | 75 | 1014.2 |
| 20260831221538 | 79 | 233 | 0.0 | 4.0 | 0.00 | 0.00 | 0.00 | 75 | 1014.0 |
| 20260831221038 | 79 | 318 | 1.0 | 7.0 | 0.00 | 0.00 | 0.00 | 76 | 1014.0 |
| 20260831220541 | 79 | 263 | 1.0 | 4.0 | 0.00 | 0.00 | 0.00 | 76 | 1014.0 |
| 20260831220038 | 79 | 29 | 1.0 | 6.0 | 0.00 | 0.00 | 0.00 | 77 | 1014.1 |
| 20260831215538 | 79 | 338 | 1.0 | 9.0 | 0.00 | 0.00 | 0.00 | 77 | 1014.0 |
| 20260831215038 | 79 | 311 | 2.0 | 6.0 | 0.00 | 0.00 | 0.00 | 78 | 1014.0 |
| 20260831214538 | 78 | 332 | 1.0 | 6.0 | 0.00 | 0.00 | 0.00 | 79 | 1014.0 |
| 20260831214038 | 79 | 315 | 2.0 | 7.0 | 0.00 | 0.00 | 0.00 | 79 | 1014.0 |
| 20260831213538 | 79 | 315 | 2.0 | 5.0 | 0.00 | 0.00 | 0.00 | 79 | 1013.9 |
| 20260831213038 | 79 | 301 | 0.0 | 8.0 | 0.00 | 0.00 | 0.00 | 79 | 1013.9 |
| 20260831212538 | 79 | 327 | 8.0 | 7.0 | 0.00 | 0.00 | 0.00 | 79 | 1013.9 |
| 20260831212038 | 79 | 320 | 0.0 | 7.0 | 0.00 | 0.00 | 0.00 | 79 | 1013.8 |
| 20260831211538 | 79 | 308 | 1.0 | 5.0 | 0.00 | 0.00 | 0.00 | 79 | 1013.9 |
| 20260831211038 | 79 | 296 | 1.0 | 4.0 | 0.00 | 0.00 | 0.00 | 79 | 1013.9 |
| 20260831210538 | 79 | 297 | 3.0 | 8.0 | 0.00 | 0.00 | 0.00 | 79 | 1013.8 |
| 20260831210041 | 79 | 299 | 0.0 | 4.0 | 0.00 | 0.00 | 0.00 | 80 | 1013.9 |
| 20260831205538 | 79 | 273 | 0.0 | 8.0 | 0.00 | 0.00 | 0.00 | 80 | 1013.9 |
| 20260831205038 | 79 | 286 | 0.0 | 8.0 | 0.00 | 0.00 | 0.00 | 80 | 1013.9 |
| 20260831204538 | 79 | 316 | 2.0 | 5.0 | 0.00 | 0.00 | 0.00 | 80 | 1013.8 |
| 20260831204038 | 79 | 306 | 4.0 | 5.0 | 0.00 | 0.00 | 0.00 | 79 | 1013.8 |
| 20260831203538 | 79 | 302 | 1.0 | 7.0 | 0.00 | 0.00 | 0.00 | 79 | 1013.7 |
| 20260831203038 | 79 | 315 | 4.0 | 10.0 | 0.00 | 0.00 | 0.00 | 79 | 1013.7 |
| 20260831202541 | 79 | 301 | 2.0 | 9.0 | 0.00 | 0.00 | 0.00 | 79 | 1013.6 |
| 20260831202041 | 79 | 308 | 1.0 | 8.0 | 0.00 | 0.00 | 0.00 | 78 | 1013.6 |
| 20260831201538 | 80 | 290 | 1.0 | 4.0 | 0.00 | 0.00 | 0.00 | 78 | 1013.6 |
| 20260831201038 | 80 | 294 | 1.0 | 6.0 | 0.00 | 0.00 | 0.00 | 77 | 1013.6 |
| 20260831200538 | 80 | 235 | 0.0 | 4.0 | 0.00 | 0.00 | 0.00 | 77 | 1013.6 |
| 20260831200038 | 80 | 94 | 0.0 | 4.0 | 0.00 | 0.00 | 0.00 | 77 | 1013.5 |
| 20260831195541 | 80 | 323 | 0.0 | 3.0 | 0.00 | 0.00 | 0.00 | 77 | 1013.5 |
| 20260831195038 | 80 | 298 | 1.0 | 4.0 | 0.00 | 0.00 | 0.00 | 76 | 1013.4 |
| 20260831194538 | 80 | 293 | 1.0 | 9.0 | 0.00 | 0.00 | 0.00 | 76 | 1013.3 |
| 20260831194038 | 80 | 320 | 0.0 | 6.0 | 0.00 | 0.00 | 0.00 | 76 | 1013.3 |
| 20260831193538 | 80 | 234 | 0.0 | 9.0 | 0.00 | 0.00 | 0.00 | 76 | 1013.3 |
| 20260831193038 | 80 | 264 | 1.0 | 8.0 | 0.00 | 0.00 | 0.00 | 76 | 1013.3 |
| 20260831192538 | 80 | 309 | 8.0 | 10.0 | 0.00 | 0.00 | 0.00 | 75 | 1013.3 |
| 20260831192038 | 80 | 263 | 1.0 | 6.0 | 0.00 | 0.00 | 0.00 | 75 | 1013.3 |
| 20260831191541 | 80 | 299 | 0.0 | 8.0 | 0.00 | 0.00 | 0.00 | 75 | 1013.2 |
| 20260831191038 | 80 | 254 | 2.0 | 4.0 | 0.00 | 0.00 | 0.00 | 75 | 1013.2 |
| 20260831190538 | 80 | 215 | 1.0 | 4.0 | 0.00 | 0.00 | 0.00 | 75 | 1013.1 |
| 20260831190038 | 81 | 321 | 2.0 | 6.0 | 0.00 | 0.00 | 0.00 | 74 | 1013.1 |
| 20260831185538 | 81 | 355 | 1.0 | 8.0 | 0.00 | 0.00 | 0.00 | 74 | 1013.1 |
| 20260831185038 | 81 | 318 | 2.0 | 6.0 | 0.00 | 0.00 | 0.00 | 74 | 1013.1 |
| 20260831184538 | 81 | 355 | 4.0 | 12.0 | 0.00 | 0.00 | 0.00 | 74 | 1013.1 |
| 20260831184041 | 81 | 311 | 2.0 | 8.0 | 0.00 | 0.00 | 0.00 | 73 | 1013.0 |
| 20260831183538 | 81 | 285 | 1.0 | 12.0 | 0.00 | 0.00 | 0.00 | 73 | 1012.9 |
| 20260831183038 | 81 | 331 | 4.0 | 9.0 | 0.00 | 0.00 | 0.00 | 72 | 1012.9 |
| 20260831182541 | 81 | 290 | 2.0 | 8.0 | 0.00 | 0.00 | 0.00 | 72 | 1012.9 |
| 20260831182041 | 81 | 312 | 6.0 | 9.0 | 0.00 | 0.00 | 0.00 | 72 | 1012.8 |
| 20260831181538 | 82 | 331 | 6.0 | 12.0 | 0.00 | 0.00 | 0.00 | 71 | 1012.7 |
| 20260831181038 | 82 | 327 | 5.0 | 10.0 | 0.00 | 0.00 | 0.00 | 70 | 1012.7 |
| 20260831180538 | 82 | 328 | 1.0 | 11.0 | 0.00 | 0.00 | 0.00 | 70 | 1012.7 |
| 20260831180038 | 82 | 326 | 2.0 | 9.0 | 0.00 | 0.00 | 0.00 | 69 | 1012.6 |
| 20260831175538 | 82 | 215 | 1.0 | 10.0 | 0.00 | 0.00 | 0.00 | 69 | 1012.6 |
| 20260831175041 | 83 | 321 | 9.0 | 10.0 | 0.00 | 0.00 | 0.00 | 68 | 1012.6 |
| 20260831174541 | 83 | 269 | 1.0 | 9.0 | 0.00 | 0.00 | 0.00 | 68 | 1012.6 |
| 20260831174038 | 83 | 312 | 1.0 | 9.0 | 0.00 | 0.00 | 0.00 | 68 | 1012.6 |
| 20260831173538 | 83 | 237 | 5.0 | 7.0 | 0.00 | 0.00 | 0.00 | 67 | 1012.5 |
| 20260831173038 | 83 | 312 | 3.0 | 9.0 | 0.00 | 0.00 | 0.00 | 66 | 1012.5 |
| 20260831172538 | 84 | 290 | 3.0 | 11.0 | 0.00 | 0.00 | 0.00 | 66 | 1012.4 |
| 20260831172038 | 84 | 295 | 2.0 | 10.0 | 0.00 | 0.00 | 0.00 | 66 | 1012.4 |
| 20260831171538 | 84 | 277 | 3.0 | 7.0 | 0.00 | 0.00 | 0.00 | 65 | 1012.4 |
| 20260831171038 | 84 | 158 | 3.0 | 8.0 | 0.00 | 0.00 | 0.00 | 65 | 1012.4 |
| 20260831170538 | 84 | 326 | 4.0 | 12.0 | 0.00 | 0.00 | 0.00 | 64 | 1012.2 |
| 20260831170038 | 85 | 327 | 4.0 | 12.0 | 0.00 | 0.00 | 0.00 | 63 | 1012.3 |
| 20260831165538 | 85 | 313 | 3.0 | 10.0 | 0.00 | 0.00 | 0.00 | 63 | 1012.3 |
| 20260831165038 | 85 | 267 | 4.0 | 13.0 | 0.00 | 0.00 | 0.00 | 62 | 1012.3 |
| 20260831164538 | 85 | 36 | 6.0 | 13.0 | 0.00 | 0.00 | 0.00 | 61 | 1012.3 |
| 20260831164038 | 86 | 73 | 1.0 | 13.0 | 0.00 | 0.00 | 0.00 | 62 | 1012.2 |
| 20260831163538 | 86 | 210 | 3.0 | 10.0 | 0.00 | 0.00 | 0.00 | 62 | 1012.3 |
| 20260831163038 | 86 | 144 | 3.0 | 10.0 | 0.00 | 0.00 | 0.00 | 61 | 1012.4 |
| 20260831162538 | 86 | 215 | 7.0 | 13.0 | 0.00 | 0.00 | 0.00 | 60 | 1012.4 |
| 20260831162038 | 86 | 344 | 2.0 | 11.0 | 0.00 | 0.00 | 0.00 | 60 | 1012.6 |
| 20260831161541 | 87 | 215 | 5.0 | 12.0 | 0.00 | 0.00 | 0.00 | 60 | 1012.7 |
| 20260831161038 | 87 | 262 | 8.0 | 13.0 | 0.00 | 0.00 | 0.00 | 60 | 1012.6 |
| 20260831160538 | 87 | 289 | 4.0 | 13.0 | 0.00 | 0.00 | 0.00 | 59 | 1012.5 |
| 20260831160038 | 87 | 154 | 7.0 | 10.0 | 0.00 | 0.00 | 0.00 | 59 | 1012.6 |
| 20260831155538 | 88 | 45 | 5.0 | 15.0 | 0.00 | 0.00 | 0.00 | 58 | 1012.6 |
| 20260831155038 | 88 | 229 | 4.0 | 13.0 | 0.00 | 0.00 | 0.00 | 57 | 1012.6 |
| 20260831154538 | 88 | 320 | 2.0 | 15.0 | 0.00 | 0.00 | 0.00 | 57 | 1012.7 |
| 20260831154038 | 88 | 296 | 5.0 | 12.0 | 0.00 | 0.00 | 0.00 | 57 | 1012.6 |
| 20260831153538 | 88 | 252 | 8.0 | 11.0 | 0.00 | 0.00 | 0.00 | 57 | 1012.7 |
| 20260831153038 | 89 | 47 | 4.0 | 13.0 | 0.00 | 0.00 | 0.00 | 56 | 1012.7 |
| 20260831152538 | 89 | 257 | 2.0 | 14.0 | 0.00 | 0.00 | 0.00 | 55 | 1012.7 |
| 20260831152041 | 89 | 348 | 3.0 | 15.0 | 0.00 | 0.00 | 0.00 | 54 | 1012.7 |
| 20260831151541 | 89 | 192 | 10.0 | 13.0 | 0.00 | 0.00 | 0.00 | 53 | 1012.6 |
| 20260831151038 | 89 | 346 | 3.0 | 12.0 | 0.00 | 0.00 | 0.00 | 52 | 1012.6 |
| 20260831150538 | 90 | 355 | 2.0 | 12.0 | 0.00 | 0.00 | 0.00 | 52 | 1012.6 |
| 20260831150038 | 90 | 157 | 2.0 | 10.0 | 0.00 | 0.00 | 0.00 | 54 | 1012.6 |
| 20260831145537 | 90 | 350 | 8.0 | 10.0 | 0.00 | 0.00 | 0.00 | 52 | 1012.6 |
| 20260831145038 | 90 | 336 | 5.0 | 9.0 | 0.00 | 0.00 | 0.00 | 55 | 1012.7 |
| 20260831144538 | 89 | 231 | 3.0 | 11.0 | 0.00 | 0.00 | 0.00 | 55 | 1012.7 |
| 20260831144040 | 89 | 165 | 5.0 | 10.0 | 0.00 | 0.00 | 0.00 | 55 | 1012.6 |
| 20260831143541 | 89 | 264 | 4.0 | 11.0 | 0.00 | 0.00 | 0.00 | 55 | 1012.7 |
| 20260831143038 | 89 | 50 | 2.0 | 9.0 | 0.00 | 0.00 | 0.00 | 55 | 1012.7 |
| 20260831142538 | 90 | 312 | 4.0 | 9.0 | 0.00 | 0.00 | 0.00 | 55 | 1012.7 |
| 20260831142041 | 90 | 242 | 3.0 | 12.0 | 0.00 | 0.00 | 0.00 | 54 | 1012.7 |
| 20260831141538 | 90 | 163 | 5.0 | 11.0 | 0.00 | 0.00 | 0.00 | 53 | 1012.6 |
| 20260831141037 | 90 | 355 | 3.0 | 8.0 | 0.00 | 0.00 | 0.00 | 51 | 1012.6 |
| 20260831140538 | 90 | 355 | 3.0 | 10.0 | 0.00 | 0.00 | 0.00 | 50 | 1012.6 |
| 20260831140038 | 90 | 263 | 10.0 | 10.0 | 0.00 | 0.00 | 0.00 | 50 | 1012.6 |
| 20260831135538 | 90 | 134 | 2.0 | 10.0 | 0.00 | 0.00 | 0.00 | 50 | 1012.6 |
| 20260831135038 | 90 | 165 | 2.0 | 8.0 | 0.00 | 0.00 | 0.00 | 48 | 1012.6 |
| 20260831134538 | 91 | 22 | 4.0 | 9.0 | 0.00 | 0.00 | 0.00 | 48 | 1012.6 |
| 20260831134038 | 91 | 33 | 4.0 | 9.0 | 0.00 | 0.00 | 0.00 | 45 | 1012.6 |
| 20260831133538 | 91 | 207 | 3.0 | 6.0 | 0.00 | 0.00 | 0.00 | 48 | 1012.7 |
| 20260831133038 | 90 | 216 | 3.0 | 9.0 | 0.00 | 0.00 | 0.00 | 45 | 1012.7 |
| 20260831132538 | 91 | 75 | 3.0 | 10.0 | 0.00 | 0.00 | 0.00 | 48 | 1012.7 |
| 20260831132037 | 91 | 40 | 3.0 | 8.0 | 0.00 | 0.00 | 0.00 | 47 | 1012.7 |